Regional Weather Roundup
Issued by NWS Boston, MA

Current Version | Previous Version | Text Only | Print | Product List | Glossary On
Versions: 1 2 3 4 5 6 7 8 9 10 11 12 13 14 15 16 17 18 19 20 21 22 23 24 25 26 27 28 29 30 31 32 33 34 35 36 37 38 39 40 41 42 43 44 45 46 47 48 49 50
000
ASUS41 KBOX 290110
RWRBOX

REGIONAL WEATHER ROUNDUP
NATIONAL WEATHER SERVICE TAUNTON MA
900 PM EDT THU AUG 28 2014

NOTE:  "FAIR" INDICATES FEW OR NO CLOUDS BELOW 12,000 FEET WITH NO
SIGNIFICANT WEATHER AND/OR OBSTRUCTIONS TO VISIBILITY.  THE FOLLOWING
OBSERVATION LOCATIONS DO NOT REPORT PRESENT WEATHER...PROVINCETOWN...
SMITHFIELD...BLOCK ISLAND...KEENE...AND OXFORD.

MAZALL-290200-
EASTERN MASSACHUSETTS

CITY           SKY/WX    TMP DP  RH WIND       PRES   REMARKS
BOSTON         PTCLDY    71  46  40 NW13      29.93R
BEVERLY        CLEAR     62  48  60 NW9       29.93R
LAWRENCE       PTCLDY    66  48  52 NW8       29.96R
BEDFORD        CLEAR     64  49  57 NW8       29.94R
BLUE HILL        N/A     66  47  50 NW14G20   29.94R
NORWOOD        CLEAR     65  49  56 NW6       29.94R
MARSHFIELD     CLEAR     70  48  46 NW6       29.94R
PLYMOUTH       CLEAR     68  47  46 N7        29.93R
TAUNTON        CLEAR     67  49  52 NW3       29.93R
NEW BEDFORD    CLEAR     68  49  50 NW3       29.92R
$$

MAZALL-290200-
CAPE COD AND THE ISLANDS

CITY           SKY/WX    TMP DP  RH WIND       PRES   REMARKS
FALMOUTH       MOCLDY    68  52  56 N7        29.92R
HYANNIS        PTCLDY    70  56  61 N10G18    29.90R
CHATHAM        CLEAR     69  54  58 NW8G16    29.91R
PROVINCETOWN   CLEAR     68  55  64 NW13      29.91R
NANTUCKET      PTCLDY    68  58  70 NW5       29.90R
MARTHAS VNYRD  MOCLDY    64  59  83 N6        29.91R
$$

MAZALL-290200-
CENTRAL AND WESTERN MASSACHUSETTS

CITY           SKY/WX    TMP DP  RH WIND       PRES   REMARKS
WORCESTER      MOCLDY    62  51  67 NW8       29.99R
FITCHBURG      CLEAR     64  51  62 N8        29.98R
ORANGE         PTCLDY    64  49  57 NW8       29.99R
SPRINGFIELD    MOCLDY    63  55  76 N5        29.98R
WESTFIELD      MOCLDY    67  52  58 NW7       29.98R
NORTH ADAMS    PTCLDY    59  55  87 CALM      30.01R
PITTSFIELD     CLOUDY    62  52  69 W10       30.02R
$$

RIZALL-290200-
RHODE ISLAND

CITY           SKY/WX    TMP DP  RH WIND       PRES   REMARKS
PROVIDENCE     PTCLDY    70  50  49 N9        29.95R
NEWPORT        PTCLDY    70  52  52 N9        29.93R
BLOCK ISLAND   MOCLDY    70  55  60 NW8       29.95R
SMITHFIELD     PTCLDY    63  46  55 NW3       29.96R
WESTERLY       PTCLDY    70  55  59 NW5       29.95R
$$

CTZALL-290200-
CONNECTICUT

CITY           SKY/WX    TMP DP  RH WIND       PRES   REMARKS
BRADLEY INTL   MOCLDY    69  53  56 NW9       29.97R
HARTFORD       MOCLDY    71  52  50 NW8       29.97R
BRIDGEPORT     CLEAR     71  51  49 N12       29.98R
DANBURY        PTCLDY    67  52  58 N8        30.02R
GROTON         CLEAR     67  53  61 NW7       29.95R
NEW HAVEN      PTCLDY    71  51  49 N7        29.98R
CHESTER        FAIR      68  54  60 NW8       29.99R
MERIDEN        CLEAR     69  50  50 N10       29.98R
WILLIMANTIC    CLEAR     65  56  72 N5        29.97R
OXFORD         PTCLDY    64  50  59 N12G18    30.02R
$$

MEZ002-015-021-024-NHZ003-005-008-011-012-014-VTZ005-008-290200-
NORTHERN NEW ENGLAND

CITY           SKY/WX    TMP DP  RH WIND       PRES   REMARKS
PORTLAND ME    PTCLDY    65  48  54 NW14      29.91R
BANGOR ME      PTCLDY    63  49  60 NW10      29.86R
CONCORD NH     CLEAR     63  48  58 NW8       29.96R
MANCHESTER NH  PTCLDY    67  47  48 NW10      29.95R
NASHUA NH      CLEAR     66  49  54 NW8       29.97R
PORTSMOUTH NH  PTCLDY    63  49  59 NW6       29.92R
JAFFREY NH     CLEAR     60  49  66 VRB3      30.01R
KEENE NH       PTCLDY    61  46  59 CALM      30.00R
BURLINGTON VT  CLOUDY    65  50  58 N10       30.03R
MT. WASHINGTON FOG       37  37 100 N44G60      N/A  VSB 0   WCI  23
$$

NYZ052-076-290200-
EASTERN NEW YORK

CITY           SKY/WX    TMP DP  RH WIND       PRES   REMARKS
ALBANY         MOCLDY    66  52  60 NW9       30.03R
NEW YORK CITY  PTCLDY    73  52  47 NW15G28   29.98R
$$

ANZALL-290200-
MARINE OBSERVATIONS

STATION/POSITION TIME  TEMP    WIND        PRES    VSBY  WAVE
                       AIR SEA DIR/SP/G                  HT/PER
                 (UTC) (F)     (DEG/KT/KT) (MB)    (MI)  (FT/S)
BOSTON BUOY      0050   69 68  330/ 16/ 17 1013.2R         3/ 3
BUZZARDS BAY     0000          330/ 14/ 14 1013.1R
NANTUCKET SOUND  0050   72 71  340/ 17/ 21 1012.1R         2/ 3
MASS BAY-STELLWA 0004   70 67  320/ 16/ 21   N/A    1 7/8  2/ 3
ISLE OF SHOALS   0100   68     320/ 14/ 16 1012.7R
S OF BLOCK IS    0008      70                N/A           5/14
$$

......................KEY.........................
  SKY/WX - SKY CONDITION/PRESENT WEATHER
  TMP    - TEMPERATURE IN FAHRENHEIT
  DWPT   - DEWPOINT IN FAHRENHEIT
  RH     - RELATIVE HUMIDITY IN PERCENT
  WIND   - DIRECTION AND SPEED IN MPH
  PRES   - MEAN SEA LEVEL PRESSURE IN INCHES OF HG
  WCI    - WIND CHILL INDEX
  VSB    - VISIBILITY IN MILES
  HX     - HEAT INDEX
  TC     - TEMPERATURE IN CELSIUS
  VRB    - VARIABLE WIND DIRECTION
  N/A    - NOT AVAILABLE


USA.gov is the U.S. government's official web portal to all federal, state and local government web resources and services.